Tracking 30106 objects as of 24-Jan-2025
HD Live streaming from Space Station
objects crossing your sky now

SL-12 R/B(2)

Track SL-12 R/B(2) now!


NORAD ID: 14117
Int'l Code: 1982-009F
Perigee: 35,433.7 km
Apogee: 35,755.3 km
Inclination: 7.6 °
Period: 1,425.9 minutes
Semi major axis: 41965 km
RCS: 2.3838 m2 (large)
Launch date: February 5, 1982
Source: Commonwealth of Independent States (former USSR) (CIS)
Launch site: TYURATAM MISSILE AND SPACE COMPLEX (TTMTR)

Note: This is a ROCKET BODY
Your satellite tracking list
Your tracking list is empty




NASA's NSSDC Master Catalog

Two Line Element Set (TLE):
1 14117U 82009F   25023.23547819 -.00000229  00000-0  00000-0 0  9998
2 14117   7.6399 298.3170 0038316 186.8990 356.2809  1.00986577118288
Source of the keplerian elements: AFSPC